Retour au catalogue

STARLINK-31187

ActifCommunicationsVLEO
NORAD 58790·PAYLOAD·🇺🇸 United States

Lancé Jan 15, 2024 depuis Cape Canaveral Space Force Station

Loading…

Prochains Passages (prochaines 24 heures)

TLE

FraisSource: CelesTrak SupGP

Époque: Sep 14, 2026, 20:35 UTC

1 58790C 24012D   26257.85812500  .00003319  00000+0  12020-3 0  2579
2 58790  42.9996 177.2872 0001389 263.3430  59.6814 15.27579668    16

Suivez STARLINK-31187 en temps réel avec AllMySat

Download on the App Store